Regional Weather Roundup
Issued by NWS

Current Version | Previous Version | Graphics & Text | Print | Product List | Glossary On
Versions: 1 2 3 4 5 6 7 8 9 10 11 12 13 14 15 16 17 18 19 20 21 22 23 24 25 26 27 28 29 30 31 32 33 34 35 36 37 38 39 40 41 42 43 44 45 46 47 48 49 50
000
ASHW40 PHFO 251810
RWRHI

WEATHER ROUNDUP FOR HAWAII
NATIONAL WEATHER SERVICE HONOLULU HI
800 AM HST SAT OCT 25 2014

THIS IS AN AUTOMATED REPORT THAT HAS NOT BEEN QUALITY CONTROLLED.

NOTE..."FAIR" INDICATES FEW OR NO CLOUDS BELOW 12,000 FEET WITH NO
SIGNIFICANT WEATHER AND/OR OBSTRUCTIONS TO VISIBILITY.

* - THESE SITES REPORT LIMITED FIELDS

HIZ001>004-251900-
KAUAI-NIIHAU-

CITY           SKY/WX    TMP DP  RH WIND       PRES   REMARKS
LIHUE APT      PTSUNNY   80  70  71 E9        30.05R
PORT ALLEN*      N/A     77 N/A N/A NE8         N/A
POIPU*           N/A     79 N/A N/A NE7         N/A
PRINCEVILLE*     N/A     73 N/A N/A MISG        N/A
KOKOLE POINT*  NOT AVBL
MOLOAA DAIRY*  NOT AVBL
WAIMEA HTS*    NOT AVBL
PUU OPAE*      NOT AVBL
PUU LUA*       NOT AVBL
MAKAHA RIDGE*  NOT AVBL
$$

HIZ005>011-251900-
OAHU-

CITY           SKY/WX    TMP DP  RH WIND       PRES   REMARKS
HONOLULU       MOSUNNY   80  71  74 VRB7      30.03R
KALAELOA       SUNNY     78  70  76 CALM      30.04R
KANEOHE MCB    PTSUNNY   80  72  76 E7        30.04R
WHEELER FIELD  NOT AVBL
BELLOWS*       NOT AVBL
KAHUKU*        NOT AVBL
WHEELER*       NOT AVBL
WAIANAE HARBOR NOT AVBL
DILLINGHAM*      N/A     66  63  88 NE1         N/A
KAHUKU TRN*      N/A     82  79  89 E7G16       N/A  HX  93
KAWAILOA*        N/A     73  68  83 E7G14       N/A
KII*             N/A     79  73  83 E13G24      N/A
MAKUA RANGE*     N/A     77  68  73 E3          N/A
OAHU FOREST NW NOT AVBL
SCHOFIELD BRK*   N/A     64  61  88 CALM        N/A
SCHOFIELD S*   NOT AVBL
WAIANAE VLY*   NOT AVBL
KUAOKALA*      NOT AVBL
HONOULIUULI*   NOT AVBL
MOKUOLOE IS*     N/A    N/A N/A N/A MISG        N/A
PALEHUA*       NOT AVBL
WAIAWA PHB*    NOT AVBL
$$

HIZ012>013-251900-
MOLOKAI-

CITY           SKY/WX    TMP DP  RH WIND       PRES   REMARKS
MOLOKAI AIRPT  MOSUNNY   78  74  87 NE8       30.04R
KALAUPAPA      NOT AVBL
MAKAPULAPAI*   NOT AVBL
MOLOKAI 1*     NOT AVBL
PUU ALII*      NOT AVBL
$$

HIZ016-251900-
KAHOOLAWE-

CITY           SKY/WX    TMP DP  RH WIND       PRES   REMARKS
KAHOOLAWE*     NOT AVBL
HAKIOAWA*      NOT AVBL
HONOKANAIA*      N/A     82  68  62 N7G14     30.04R
KANELOA*         N/A     73  66  78 NE9       29.25R
KEALIALALO*    NOT AVBL
LUA MAKIKA*    NOT AVBL
$$

HIZ014>015-251900-
LANAI-

CITY           SKY/WX    TMP DP  RH WIND       PRES   REMARKS
LANAI CITY     FAIR      75  70  85 NE7       30.09R
LANAI 1*       NOT AVBL
$$

HIZ017>028-251900-
MAUI-

CITY           SKY/WX    TMP DP  RH WIND       PRES   REMARKS
KAHULUI        MOSUNNY   73  64  73 CALM      30.03R
KAPALUA-W MAUI MOSUNNY   77  68  73 NE7       30.01
HANA AIRPORT   PTSUNNY   75  73  94 S3        30.07S
HANA*          NOT AVBL
HALEAKALA SUMM   N/A     46  10  23 E17G40      N/A
MAALAEA BAY*   NOT AVBL
HALEAKALA*     NOT AVBL
KAUPO GAP*     NOT AVBL
KULA 1*          N/A    N/A N/A N/A E6          N/A
$$

HIZ023>026-251900-
BIG ISLAND OF HAWAII COAST AND LOWER SLOPES-

CITY           SKY/WX    TMP DP  RH WIND       PRES   REMARKS
KAILUA KONA    SUNNY     79  65  62 NE3       30.00R
HILO           PTSUNNY   73  69  87 SW7       30.05R
HONOKAA*       NOT AVBL
KAWAIHAE MWT*  NOT AVBL
KAWAIHAE*        N/A     82 N/A N/A W2          N/A
SOUTH POINT*   NOT AVBL
UPOLU AIRPORT* NOT AVBL
KAMUELA*       MOCLDY    68  61  77 NE9       30.14S
HAKALAU*         N/A     53  51  92 SW5         N/A
KALOKO-HONOKO* NOT AVBL
PALI 2*          N/A     70  59  68 N15G21      N/A
KEALAKOMO*       N/A     73  70  88 NE8G21      N/A
KAUPULEHU*     NOT AVBL
KAPAPALA*        N/A     69  59  71 CALM        N/A
LOWER KAHUKU*  NOT AVBL
PUHE CS*       NOT AVBL
PUHO CS*       NOT AVBL
PTA KEAMUKU*     N/A     66  59  77 SE3         N/A
WAIKOLOA*      NOT AVBL
$$

HIZ027>028-251900-
BIG ISLAND OF HAWAII INTERIOR AND SUMMMITS-

CITY           SKY/WX    TMP DP  RH WIND       PRES   REMARKS
BRADSHAW FIELD CLOUDY    61  45  56 S6        30.36R
MK VISITOR CEN NOT AVBL
MAUNA KEA*       N/A     37   0  20 SE28        N/A  WCI  25
MAUNA LOA*       N/A     46  -6  11 MISG        N/A
MAUNA LOA 1*   NOT AVBL
PTA KIPUKA*      N/A     63  52  67 SW2         N/A
PTA RANGE 17*    N/A     63  43  48 E12G25      N/A
PTA WEST*        N/A     66  50  55 N2G10       N/A
NENE CABIN*    NOT AVBL
AHUMOA*        NOT AVBL
PTA PORTABLE*  NOT AVBL
PUU MALI*      NOT AVBL
$$

HIC003-251900-
NORTHWEST ISLANDS-

CITY           SKY/WX    TMP DP  RH WIND       PRES   REMARKS
MIDWAY ISLAND  MOCLDY    75  68  78 N8        29.98R
MIDWAY NOS*    NOT AVBL
FRENCH FRIGATE NOT AVBL
$$

PHZ110>124-180-251900-
BUOY REPORTS

STATION/POSITION TIME  TEMP    WIND        PRES    WAVE   SWELL
                       AIR SEA DIR/SP/G            HT/PER HT/DIR
                 (UTC) (F)     (DEG/KT/KT) (MB)    (FT/S) (FT/D)
BUOY 51001       NOT AVBL
BUOY 51101       NOT AVBL
BUOY 51100       1700   78 80   90/ 19/ 25 1017.6
BUOY 51003       1700   81 82  110/ 12/ 14 1015.5R   6/ 7   5
BUOY 51004       1726   79 81   60/ 16/ 17 1015.1R   7/11   5/350
BARBERS PT BUOY  NOT AVBL
WAIMEA BAY BUOY  1800      81                N/A     4/11   2/350
KAILUA BAY BUOY  1800      81                N/A     6/10   3
LANAI BUOY       1800      82                N/A     2/12   2/200
BARBERS PT 2     1800      81                N/A     4/15   2/200
PAUWELA MAUI     1800      80                N/A     6/ 8   3/350
HILO             1800      81                N/A     6/ 8   2/ 10
KANEOHE BAY BUOY NOT AVBL
HANALEI KAUAI    NOT AVBL
KAHULUI HARBOR   1800   77 81   10/  7/ 12 1016.7R
HONOLULU HARBOR  1800   80      90/  1/  2 1017.2R
KILO NALU        NOT AVBL
HILO HARBOR      1800   73     230/  7/  9 1017.1R
MOKUOLOE         1800      82              1017.4R
NAWILIWILI       1800      81                N/A
WHOTS BUOY       NOT AVBL
BUOY 51028       NOT AVBL
$$

......................KEY........................................
  SKY/WX - SKY CONDITIONS/PRESENT WEATHER
  TMP    - TEMPERATURE IN FAHRENHEIT
  DWPT   - DEWPOINT IN FAHRENHEIT
  RH     - RELATIVE HUMIDITY IN PERCENT
  WIND   - DIRECTION AND SPEED /MPH FOR ISLANDS...KTS FOR BUOYS/
  PRES   - MEAN SEA LEVEL PRESSURE IN INCHES OF HG
  VSB    - VISIBILITY IN MILES
  HX     - HEAT INDEX
  WCI    - WIND CHILL INDEX
  VRB    - VARIABLE WIND DIRECTION
  N/A    - NOT AVAILABLE



USA.gov is the U.S. government's official web portal to all federal, state and local government web resources and services.